This is the latest recevied weather packets stored in our database for station/object KC1HBM. If no packets are shown the sender has not sent any weather packets the latest 10 day(s).
| Time | Temp. | Humidity | Pressure | Rain* | Wind** | Luminosity | Snow |
|---|---|---|---|---|---|---|---|
| 1778027161 | 16.67° C | 73% | 1005.5 hPa | 0 mm | - | 0 W/m² | - |
| 1778026857 | 16.67° C | 71% | 1005.5 hPa | 0 mm | - | 0 W/m² | - |
| 1778026554 | 16.67° C | 71% | 1005.4 hPa | 0 mm | - | 0 W/m² | - |
| 1778026251 | 17.22° C | 70% | 1005.2 hPa | 0 mm | - | 0 W/m² | - |
| 1778025948 | 17.22° C | 70% | 1005 hPa | 0 mm | - | 0 W/m² | - |
| 1778025645 | 17.22° C | 71% | 1004.7 hPa | 0 mm | - | 0 W/m² | - |
| 1778025343 | 16.67° C | 72% | 1004.4 hPa | 0 mm | - | 0 W/m² | - |
| 1778025040 | 16.67° C | 73% | 1004.3 hPa | 0 mm | - | 0 W/m² | - |
| 1778024737 | 16.67° C | 73% | 1004.3 hPa | 0 mm | - | 0 W/m² | - |
| 1778024434 | 17.22° C | 72% | 1004.4 hPa | 0 mm | - | 1 W/m² | - |
| 1778024131 | 17.22° C | 72% | 1004.3 hPa | 0 mm | - | 2 W/m² | - |
| 1778023829 | 17.78° C | 70% | 1004.2 hPa | 0 mm | - | 2 W/m² | - |
| 1778023526 | 16.67° C | 71% | 1004.3 hPa | 0 mm | - | 4 W/m² | - |
| 1778023224 | 16.11° C | 73% | 1004.6 hPa | 0 mm | - | 4 W/m² | - |
| 1778022921 | 16.11° C | 74% | 1004.8 hPa | 0 mm | - | 2 W/m² | - |
| 1778022619 | 16.11° C | 73% | 1004.7 hPa | 0 mm | - | 2 W/m² | - |
| 1778022316 | 15.56° C | 75% | 1004.7 hPa | 0 mm | - | 0 W/m² | - |
| 1778022013 | 15° C | 76% | 1003.9 hPa | 0 mm | - | 2 W/m² | - |
| 1778021710 | 15° C | 75% | 1003.1 hPa | 0 mm | - | 9 W/m² | - |
| 1778021405 | 15.56° C | 75% | 1003.1 hPa | 0 mm | - | 22 W/m² | - |
| 1778021103 | 15° C | 75% | 1002.9 hPa | 0 mm | - | 22 W/m² | - |
| 1778020800 | 15° C | 76% | 1002.7 hPa | 0 mm | - | 18 W/m² | - |
| 1778020497 | 15° C | 76% | 1002.7 hPa | 0 mm | - | 21 W/m² | - |
| 1778020193 | 15° C | 75% | 1002.8 hPa | 0 mm | - | 23 W/m² | - |
| 1778019889 | 15° C | 75% | 1002.6 hPa | 0 mm | - | 29 W/m² | - |
* Rain latest hour (hover to see other rain measurements)
** Current wind speed in m/s (hover to see current wind gust speed)